Time,TemperatureF,DewpointF,PressureIn,WindDirection,WindDirectionDegrees,WindSpeedMPH,WindSpeedGustMPH,Humidity,HourlyPrecipIn,Conditions,Clouds,dailyrainin,SolarRadiationWatts/m^2,SoftwareType,DateUTC
2013-07-19 00:00:00,76.7,72.5,29.94,ESE,113,0.0,0.0,87,0.00,,,0.00,0,Wunderground v.1.15,2013-07-19 05:00:00,
2013-07-19 00:05:00,76.6,72.4,29.94,ESE,113,0.0,0.0,87,0.00,,,0.00,0,Wunderground v.1.15,2013-07-19 05:05:00,
2013-07-19 00:15:00,76.5,73.0,29.95,ESE,113,1.0,4.0,89,0.00,,,0.00,0,Wunderground v.1.15,2013-07-19 05:15:00,
2013-07-19 00:20:00,76.5,73.0,29.95,ESE,113,1.0,1.0,89,0.00,,,0.00,0,Wunderground v.1.15,2013-07-19 05:20:00,
2013-07-19 00:25:00,76.5,73.0,29.95,ESE,115,1.0,1.0,89,0.00,,,0.00,0,Wunderground v.1.15,2013-07-19 05:25:00,
2013-07-19 00:30:00,76.4,73.2,29.95,ESE,115,2.0,2.0,90,0.00,,,0.00,0,Wunderground v.1.15,2013-07-19 05:30:00,
2013-07-19 00:40:00,76.4,73.2,29.95,ESE,114,1.0,1.0,90,0.00,,,0.00,0,Wunderground v.1.15,2013-07-19 05:40:00,
2013-07-19 00:45:00,76.3,73.1,29.95,ESE,114,1.0,1.0,90,0.00,,,0.00,0,Wunderground v.1.15,2013-07-19 05:45:00,
2013-07-19 00:50:00,76.3,73.1,29.95,ESE,115,0.0,4.0,90,0.00,,,0.00,0,Wunderground v.1.15,2013-07-19 05:50:00,
2013-07-19 01:00:00,76.1,73.0,29.95,ESE,115,0.0,0.0,90,0.00,,,0.00,0,Wunderground v.1.15,2013-07-19 06:00:00,
2013-07-19 01:10:00,76.0,72.9,29.95,ESE,115,0.0,0.0,90,0.00,,,0.00,0,Wunderground v.1.15,2013-07-19 06:10:00,
2013-07-19 01:15:00,76.0,72.9,29.95,ESE,115,0.0,0.0,90,0.00,,,0.00,0,Wunderground v.1.15,2013-07-19 06:15:00,
2013-07-19 01:20:00,75.9,73.1,29.95,ESE,115,0.0,0.0,91,0.00,,,0.00,0,Wunderground v.1.15,2013-07-19 06:20:00,
2013-07-19 01:25:00,75.8,73.0,29.95,ESE,115,0.0,0.0,91,0.00,,,0.00,0,Wunderground v.1.15,2013-07-19 06:25:00,
2013-07-19 01:30:00,75.8,73.0,29.95,ESE,115,0.0,0.0,91,0.00,,,0.00,0,Wunderground v.1.15,2013-07-19 06:30:00,
2013-07-19 01:35:00,75.8,73.0,29.95,ESE,115,1.0,1.0,91,0.00,,,0.00,0,Wunderground v.1.15,2013-07-19 06:35:00,
2013-07-19 01:40:00,75.8,73.0,29.95,ESE,115,0.0,0.0,91,0.00,,,0.00,0,Wunderground v.1.15,2013-07-19 06:40:00,
2013-07-19 01:45:00,75.7,72.9,29.95,ESE,115,0.0,0.0,91,0.00,,,0.00,0,Wunderground v.1.15,2013-07-19 06:45:00,
2013-07-19 01:55:00,75.7,73.2,29.95,ESE,115,0.0,0.0,92,0.00,,,0.00,0,Wunderground v.1.15,2013-07-19 06:55:00,
2013-07-19 02:00:00,75.6,73.1,29.95,ESE,115,0.0,0.0,92,0.00,,,0.00,0,Wunderground v.1.15,2013-07-19 07:00:00,
2013-07-19 02:05:00,75.6,73.1,29.95,ESE,115,0.0,0.0,92,0.00,,,0.00,0,Wunderground v.1.15,2013-07-19 07:05:00,
2013-07-19 02:10:00,75.5,73.0,29.95,ESE,115,0.0,0.0,92,0.00,,,0.00,0,Wunderground v.1.15,2013-07-19 07:10:00,
2013-07-19 02:15:00,75.5,73.0,29.95,ESE,115,0.0,0.0,92,0.00,,,0.00,0,Wunderground v.1.15,2013-07-19 07:15:00,
2013-07-19 02:20:00,75.5,73.0,29.95,ESE,115,0.0,0.0,92,0.00,,,0.00,0,Wunderground v.1.15,2013-07-19 07:20:00,
2013-07-19 02:25:00,75.5,73.0,29.95,ESE,114,0.0,0.0,92,0.00,,,0.00,0,Wunderground v.1.15,2013-07-19 07:25:00,
2013-07-19 02:30:00,75.5,73.0,29.95,ESE,114,0.0,0.0,92,0.00,,,0.00,0,Wunderground v.1.15,2013-07-19 07:30:00,
2013-07-19 02:35:00,75.4,72.9,29.95,ESE,114,0.0,0.0,92,0.00,,,0.00,0,Wunderground v.1.15,2013-07-19 07:35:00,
2013-07-19 02:40:00,75.4,72.9,29.95,ESE,114,0.0,0.0,92,0.00,,,0.00,0,Wunderground v.1.15,2013-07-19 07:40:00,
2013-07-19 02:45:00,75.4,72.9,29.95,ESE,115,0.0,0.0,92,0.00,,,0.00,0,Wunderground v.1.15,2013-07-19 07:45:00,
2013-07-19 02:50:00,75.4,73.2,29.95,ESE,115,0.0,0.0,93,0.00,,,0.00,0,Wunderground v.1.15,2013-07-19 07:50:00,
2013-07-19 02:55:00,75.4,73.2,29.95,ESE,115,0.0,0.0,93,0.00,,,0.00,0,Wunderground v.1.15,2013-07-19 07:55:00,
2013-07-19 03:00:00,75.4,73.2,29.95,ESE,115,0.0,0.0,93,0.00,,,0.00,0,Wunderground v.1.15,2013-07-19 08:00:00,
2013-07-19 03:05:00,75.4,73.2,29.95,ESE,115,0.0,0.0,93,0.00,,,0.00,0,Wunderground v.1.15,2013-07-19 08:05:00,
2013-07-19 03:10:00,75.4,73.2,29.95,ESE,114,0.0,0.0,93,0.00,,,0.00,0,Wunderground v.1.15,2013-07-19 08:10:00,
2013-07-19 03:15:00,75.3,73.1,29.95,ESE,114,0.0,0.0,93,0.00,,,0.00,0,Wunderground v.1.15,2013-07-19 08:15:00,
2013-07-19 03:20:00,75.3,73.1,29.95,ESE,114,0.0,0.0,93,0.00,,,0.00,0,Wunderground v.1.15,2013-07-19 08:20:00,
2013-07-19 03:25:00,75.2,73.0,29.95,ESE,114,0.0,0.0,93,0.00,,,0.00,0,Wunderground v.1.15,2013-07-19 08:25:00,
2013-07-19 03:30:00,75.1,72.9,29.94,ESE,114,0.0,0.0,93,0.00,,,0.00,0,Wunderground v.1.15,2013-07-19 08:30:00,
2013-07-19 03:35:00,75.0,72.8,29.94,ESE,115,0.0,0.0,93,0.00,,,0.00,0,Wunderground v.1.15,2013-07-19 08:35:00,
2013-07-19 03:45:00,74.8,72.6,29.93,ESE,114,0.0,0.0,93,0.00,,,0.00,0,Wunderground v.1.15,2013-07-19 08:45:00,
2013-07-19 03:50:00,74.7,72.5,29.93,ESE,114,0.0,0.0,93,0.00,,,0.00,0,Wunderground v.1.15,2013-07-19 08:50:00,
2013-07-19 03:55:00,74.6,72.4,29.93,ESE,115,0.0,0.0,93,0.00,,,0.00,0,Wunderground v.1.15,2013-07-19 08:55:00,
2013-07-19 04:00:00,74.5,72.3,29.93,ESE,115,0.0,0.0,93,0.00,,,0.00,0,Wunderground v.1.15,2013-07-19 09:00:00,
2013-07-19 04:05:00,74.3,72.1,29.93,ESE,115,0.0,0.0,93,0.00,,,0.00,0,Wunderground v.1.15,2013-07-19 09:05:00,
2013-07-19 04:15:00,74.2,72.0,29.93,ESE,115,0.0,0.0,93,0.00,,,0.00,0,Wunderground v.1.15,2013-07-19 09:15:00,
2013-07-19 04:20:00,74.1,71.9,29.93,ESE,114,0.0,0.0,93,0.00,,,0.00,0,Wunderground v.1.15,2013-07-19 09:20:00,
2013-07-19 04:25:00,74.0,71.8,29.93,ESE,114,0.0,0.0,93,0.00,,,0.00,0,Wunderground v.1.15,2013-07-19 09:25:00,
2013-07-19 04:30:00,73.8,71.6,29.93,ESE,114,0.0,0.0,93,0.00,,,0.00,0,Wunderground v.1.15,2013-07-19 09:30:00,
2013-07-19 04:35:00,73.8,71.6,29.93,ESE,115,0.0,0.0,93,0.00,,,0.00,0,Wunderground v.1.15,2013-07-19 09:35:00,
2013-07-19 04:40:00,73.7,71.5,29.93,ESE,115,0.0,0.0,93,0.00,,,0.00,0,Wunderground v.1.15,2013-07-19 09:40:00,
2013-07-19 04:45:00,73.6,71.4,29.93,ESE,115,0.0,0.0,93,0.00,,,0.00,0,Wunderground v.1.15,2013-07-19 09:45:00,
2013-07-19 04:50:00,73.6,71.4,29.93,ESE,115,0.0,0.0,93,0.00,,,0.00,0,Wunderground v.1.15,2013-07-19 09:50:00,
2013-07-19 04:55:00,73.5,71.7,29.93,ESE,115,0.0,0.0,94,0.00,,,0.00,0,Wunderground v.1.15,2013-07-19 09:55:00,
2013-07-19 05:00:00,73.4,71.3,29.93,ESE,114,0.0,0.0,93,0.00,,,0.00,0,Wunderground v.1.15,2013-07-19 10:00:00,
2013-07-19 05:05:00,73.3,71.2,29.93,ESE,115,0.0,0.0,93,0.00,,,0.00,0,Wunderground v.1.15,2013-07-19 10:05:00,
2013-07-19 05:10:00,73.3,71.5,29.93,ESE,115,0.0,0.0,94,0.00,,,0.00,0,Wunderground v.1.15,2013-07-19 10:10:00,
2013-07-19 05:15:00,73.2,71.4,29.94,ESE,115,0.0,0.0,94,0.00,,,0.00,0,Wunderground v.1.15,2013-07-19 10:15:00,
2013-07-19 05:20:00,73.1,71.3,29.94,ESE,115,0.0,0.0,94,0.00,,,0.00,0,Wunderground v.1.15,2013-07-19 10:20:00,
2013-07-19 05:25:00,73.1,71.3,29.94,ESE,115,0.0,0.0,94,0.00,,,0.00,0,Wunderground v.1.15,2013-07-19 10:25:00,
2013-07-19 05:35:00,72.9,71.1,29.94,ESE,115,0.0,0.0,94,0.00,,,0.00,0,Wunderground v.1.15,2013-07-19 10:35:00,
2013-07-19 05:45:00,72.8,71.0,29.94,ESE,114,0.0,0.0,94,0.00,,,0.00,0,Wunderground v.1.15,2013-07-19 10:45:00,
2013-07-19 05:50:00,72.7,70.9,29.94,ESE,114,0.0,0.0,94,0.00,,,0.00,0,Wunderground v.1.15,2013-07-19 10:50:00,
2013-07-19 05:55:00,72.7,70.9,29.94,ESE,114,0.0,0.0,94,0.00,,,0.00,0,Wunderground v.1.15,2013-07-19 10:55:00,
2013-07-19 06:05:00,72.6,70.8,29.94,ESE,114,0.0,0.0,94,0.00,,,0.00,0,Wunderground v.1.15,2013-07-19 11:05:00,
2013-07-19 06:10:00,72.5,70.7,29.94,ESE,115,0.0,0.0,94,0.00,,,0.00,0,Wunderground v.1.15,2013-07-19 11:10:00,
2013-07-19 06:15:00,72.4,70.6,29.94,ESE,115,0.0,0.0,94,0.00,,,0.00,0,Wunderground v.1.15,2013-07-19 11:15:00,
2013-07-19 06:20:00,72.4,70.6,29.94,ESE,114,0.0,0.0,94,0.00,,,0.00,0,Wunderground v.1.15,2013-07-19 11:20:00,
2013-07-19 06:25:00,72.3,70.8,29.94,ESE,114,0.0,0.0,95,0.00,,,0.00,0,Wunderground v.1.15,2013-07-19 11:25:00,
2013-07-19 06:30:00,72.2,70.7,29.94,ESE,115,0.0,0.0,95,0.00,,,0.00,0,Wunderground v.1.15,2013-07-19 11:30:00,
2013-07-19 06:35:00,72.1,70.6,29.94,ESE,114,0.0,0.0,95,0.00,,,0.00,0,Wunderground v.1.15,2013-07-19 11:35:00,
2013-07-19 06:45:00,72.0,70.2,29.94,ESE,114,0.0,0.0,94,0.00,,,0.00,0,Wunderground v.1.15,2013-07-19 11:45:00,
2013-07-19 06:50:00,71.9,70.1,29.94,ESE,115,0.0,0.0,94,0.00,,,0.00,0,Wunderground v.1.15,2013-07-19 11:50:00,
2013-07-19 06:55:00,71.8,70.3,29.94,ESE,114,0.0,0.0,95,0.00,,,0.00,5,Wunderground v.1.15,2013-07-19 11:55:00,
2013-07-19 07:00:00,71.7,70.2,29.94,ESE,114,0.0,0.0,95,0.00,,,0.00,7,Wunderground v.1.15,2013-07-19 12:00:00,
2013-07-19 07:10:00,71.8,70.3,29.94,ESE,115,0.0,0.0,95,0.00,,,0.00,16,Wunderground v.1.15,2013-07-19 12:10:00,
2013-07-19 07:15:00,71.8,70.3,29.95,ESE,115,0.0,0.0,95,0.00,,,0.00,19,Wunderground v.1.15,2013-07-19 12:15:00,
2013-07-19 07:20:00,71.9,70.4,29.95,ESE,115,0.0,0.0,95,0.00,,,0.00,21,Wunderground v.1.15,2013-07-19 12:20:00,
2013-07-19 07:25:00,72.1,70.6,29.95,ESE,114,0.0,0.0,95,0.00,,,0.00,23,Wunderground v.1.15,2013-07-19 12:25:00,
2013-07-19 07:30:00,72.2,70.7,29.95,ESE,115,0.0,0.0,95,0.00,,,0.00,28,Wunderground v.1.15,2013-07-19 12:30:00,
2013-07-19 07:35:00,72.3,71.1,29.95,East,90,0.0,0.0,96,0.00,,,0.00,23,Wunderground v.1.15,2013-07-19 12:35:00,
2013-07-19 07:40:00,72.5,71.3,29.95,East,91,0.0,0.0,96,0.00,,,0.00,23,Wunderground v.1.15,2013-07-19 12:40:00,
2013-07-19 07:45:00,72.8,71.6,29.95,East,91,0.0,0.0,96,0.00,,,0.00,23,Wunderground v.1.15,2013-07-19 12:45:00,
2013-07-19 07:50:00,72.9,71.7,29.95,East,91,0.0,0.0,96,0.00,,,0.00,40,Wunderground v.1.15,2013-07-19 12:50:00,
2013-07-19 07:55:00,73.1,71.9,29.95,East,91,0.0,0.0,96,0.00,,,0.00,47,Wunderground v.1.15,2013-07-19 12:55:00,
2013-07-19 08:00:00,73.4,72.2,29.95,East,91,0.0,0.0,96,0.00,,,0.00,47,Wunderground v.1.15,2013-07-19 13:00:00,
2013-07-19 08:05:00,74.0,73.1,29.95,East,90,0.0,0.0,97,0.00,,,0.00,76,Wunderground v.1.15,2013-07-19 13:05:00,
2013-07-19 08:10:00,74.4,73.5,29.95,East,91,0.0,0.0,97,0.00,,,0.00,123,Wunderground v.1.15,2013-07-19 13:10:00,
2013-07-19 08:15:00,74.8,73.9,29.95,East,90,0.0,0.0,97,0.00,,,0.00,109,Wunderground v.1.15,2013-07-19 13:15:00,
2013-07-19 08:25:00,75.3,74.4,29.95,East,90,0.0,0.0,97,0.00,,,0.00,98,Wunderground v.1.15,2013-07-19 13:25:00,
2013-07-19 08:35:00,75.9,75.0,29.97,East,91,0.0,0.0,97,0.00,,,0.00,299,Wunderground v.1.15,2013-07-19 13:35:00,
2013-07-19 08:45:00,76.5,75.6,29.97,East,91,0.0,0.0,97,0.00,,,0.00,381,Wunderground v.1.15,2013-07-19 13:45:00,
2013-07-19 08:50:00,76.7,75.8,29.97,East,91,0.0,0.0,97,0.00,,,0.00,209,Wunderground v.1.15,2013-07-19 13:50:00,
2013-07-19 08:55:00,77.3,76.4,29.97,East,90,0.0,0.0,97,0.00,,,0.00,265,Wunderground v.1.15,2013-07-19 13:55:00,
2013-07-19 09:00:00,77.7,76.2,29.97,East,90,0.0,0.0,95,0.00,,,0.00,227,Wunderground v.1.15,2013-07-19 14:00:00,
2013-07-19 09:05:00,77.5,76.0,29.97,East,91,0.0,0.0,95,0.00,,,0.00,185,Wunderground v.1.15,2013-07-19 14:05:00,
2013-07-19 09:10:00,77.6,75.7,29.97,East,83,0.0,0.0,94,0.00,,,0.00,130,Wunderground v.1.15,2013-07-19 14:10:00,
2013-07-19 09:15:00,77.8,75.9,29.97,East,99,0.0,0.0,94,0.00,,,0.00,306,Wunderground v.1.15,2013-07-19 14:15:00,
2013-07-19 09:20:00,78.5,76.0,29.97,East,99,0.0,0.0,92,0.00,,,0.00,274,Wunderground v.1.15,2013-07-19 14:20:00,
2013-07-19 09:30:00,78.7,75.5,29.97,East,101,0.0,0.0,90,0.00,,,0.00,181,Wunderground v.1.15,2013-07-19 14:30:00,
2013-07-19 09:35:00,78.7,75.2,29.97,ESE,102,0.0,0.0,89,0.00,,,0.00,156,Wunderground v.1.15,2013-07-19 14:35:00,
2013-07-19 09:40:00,78.6,75.1,29.97,ESE,102,0.0,0.0,89,0.00,,,0.00,197,Wunderground v.1.15,2013-07-19 14:40:00,
2013-07-19 09:45:00,78.9,75.7,29.97,ESE,103,0.0,0.0,90,0.00,,,0.00,292,Wunderground v.1.15,2013-07-19 14:45:00,
2013-07-19 09:55:00,80.0,75.4,29.97,ESE,102,0.0,0.0,86,0.00,,,0.00,294,Wunderground v.1.15,2013-07-19 14:55:00,
2013-07-19 10:05:00,80.0,75.1,29.97,ESE,102,0.0,0.0,85,0.00,,,0.00,288,Wunderground v.1.15,2013-07-19 15:05:00,
2013-07-19 10:10:00,81.1,76.2,29.97,ESE,102,0.0,0.0,85,0.00,,,0.00,735,Wunderground v.1.15,2013-07-19 15:10:00,
2013-07-19 10:15:00,81.8,75.4,29.96,ESE,102,0.0,0.0,81,0.00,,,0.00,492,Wunderground v.1.15,2013-07-19 15:15:00,
2013-07-19 10:20:00,82.1,75.3,29.96,ESE,107,0.0,0.0,80,0.00,,,0.00,722,Wunderground v.1.15,2013-07-19 15:20:00,
2013-07-19 10:25:00,82.8,76.4,29.96,ESE,109,0.0,0.0,81,0.00,,,0.00,733,Wunderground v.1.15,2013-07-19 15:25:00,
2013-07-19 10:30:00,82.6,74.7,29.96,ESE,108,0.0,0.0,77,0.00,,,0.00,721,Wunderground v.1.15,2013-07-19 15:30:00,
2013-07-19 10:35:00,82.6,75.0,29.96,ESE,109,0.0,0.0,78,0.00,,,0.00,796,Wunderground v.1.15,2013-07-19 15:35:00,
2013-07-19 10:40:00,83.0,74.6,29.96,ESE,109,0.0,0.0,76,0.00,,,0.00,823,Wunderground v.1.15,2013-07-19 15:40:00,
2013-07-19 10:45:00,83.5,73.9,29.95,ESE,109,0.0,0.0,73,0.00,,,0.00,835,Wunderground v.1.15,2013-07-19 15:45:00,
2013-07-19 10:50:00,84.1,76.1,29.95,ESE,109,0.0,0.0,77,0.00,,,0.00,884,Wunderground v.1.15,2013-07-19 15:50:00,
2013-07-19 10:55:00,84.8,76.0,29.95,ESE,113,0.0,0.0,75,0.00,,,0.00,881,Wunderground v.1.15,2013-07-19 15:55:00,
2013-07-19 11:00:00,84.9,74.4,29.95,ESE,115,0.0,0.0,71,0.00,,,0.00,206,Wunderground v.1.15,2013-07-19 16:00:00,
2013-07-19 11:10:00,84.3,74.3,29.95,ESE,115,0.0,0.0,72,0.00,,,0.00,803,Wunderground v.1.15,2013-07-19 16:10:00,
2013-07-19 11:15:00,84.1,74.1,29.95,ESE,117,0.0,0.0,72,0.00,,,0.00,197,Wunderground v.1.15,2013-07-19 16:15:00,
2013-07-19 11:20:00,83.8,75.0,29.95,ESE,115,0.0,0.0,75,0.00,,,0.00,221,Wunderground v.1.15,2013-07-19 16:20:00,
2013-07-19 11:25:00,83.6,74.4,29.95,ESE,115,0.0,0.0,74,0.00,,,0.00,230,Wunderground v.1.15,2013-07-19 16:25:00,
2013-07-19 11:30:00,84.7,75.1,29.95,ESE,117,0.0,0.0,73,0.00,,,0.00,896,Wunderground v.1.15,2013-07-19 16:30:00,
2013-07-19 11:35:00,85.4,74.1,29.95,ESE,118,0.0,0.0,69,0.00,,,0.00,868,Wunderground v.1.15,2013-07-19 16:35:00,
2013-07-19 11:45:00,84.9,74.4,29.94,ESE,115,0.0,0.0,71,0.00,,,0.00,889,Wunderground v.1.15,2013-07-19 16:45:00,
2013-07-19 11:50:00,85.9,75.0,29.94,ESE,117,0.0,0.0,70,0.00,,,0.00,889,Wunderground v.1.15,2013-07-19 16:50:00,
2013-07-19 11:55:00,86.8,74.1,29.94,ESE,117,0.0,0.0,66,0.00,,,0.00,909,Wunderground v.1.15,2013-07-19 16:55:00,
2013-07-19 12:00:00,86.9,74.6,29.93,ESE,117,0.0,0.0,67,0.00,,,0.00,916,Wunderground v.1.15,2013-07-19 17:00:00,
2013-07-19 12:05:00,87.1,73.4,29.93,ESE,117,0.0,0.0,64,0.00,,,0.00,956,Wunderground v.1.15,2013-07-19 17:05:00,
2013-07-19 12:15:00,87.7,74.5,29.93,ESE,121,2.0,3.0,65,0.00,,,0.00,974,Wunderground v.1.15,2013-07-19 17:15:00,
2013-07-19 12:20:00,87.7,74.5,29.93,SE,138,2.0,2.0,65,0.00,,,0.00,979,Wunderground v.1.15,2013-07-19 17:20:00,
2013-07-19 12:25:00,88.3,74.6,29.93,SE,141,2.0,2.0,64,0.00,,,0.00,990,Wunderground v.1.15,2013-07-19 17:25:00,
2013-07-19 12:30:00,87.8,73.6,29.92,SE,141,1.0,1.0,63,0.00,,,0.00,942,Wunderground v.1.15,2013-07-19 17:30:00,
2013-07-19 12:35:00,88.5,74.8,29.92,SE,141,1.0,1.0,64,0.00,,,0.00,981,Wunderground v.1.15,2013-07-19 17:35:00,
2013-07-19 12:40:00,88.4,74.2,29.92,SE,142,0.0,0.0,63,0.00,,,0.00,991,Wunderground v.1.15,2013-07-19 17:40:00,
2013-07-19 12:45:00,88.2,74.0,29.92,SE,142,0.0,0.0,63,0.00,,,0.00,1016,Wunderground v.1.15,2013-07-19 17:45:00,
2013-07-19 12:50:00,87.0,72.9,29.92,SE,142,0.0,0.0,63,0.00,,,0.00,323,Wunderground v.1.15,2013-07-19 17:50:00,
2013-07-19 12:55:00,87.5,74.3,29.92,SE,141,0.0,0.0,65,0.00,,,0.00,1042,Wunderground v.1.15,2013-07-19 17:55:00,
2013-07-19 13:05:00,89.6,74.4,29.92,SSE,156,1.0,5.0,61,0.00,,,0.00,1027,Wunderground v.1.15,2013-07-19 18:05:00,
2013-07-19 13:10:00,88.9,74.7,29.92,SSE,157,1.0,1.0,63,0.00,,,0.00,1071,Wunderground v.1.15,2013-07-19 18:10:00,
2013-07-19 13:15:00,88.8,74.1,29.91,SSE,157,0.0,1.0,62,0.00,,,0.00,278,Wunderground v.1.15,2013-07-19 18:15:00,
2013-07-19 13:20:00,88.0,72.9,29.91,SSE,157,0.0,0.0,61,0.00,,,0.00,1069,Wunderground v.1.15,2013-07-19 18:20:00,
2013-07-19 13:25:00,88.8,73.6,29.91,SSE,157,0.0,0.0,61,0.00,,,0.00,1041,Wunderground v.1.15,2013-07-19 18:25:00,
2013-07-19 13:30:00,90.2,74.9,29.90,SSE,157,1.0,1.0,61,0.00,,,0.00,1032,Wunderground v.1.15,2013-07-19 18:30:00,
2013-07-19 13:40:00,90.0,74.7,29.90,SSE,165,1.0,1.0,61,0.00,,,0.00,1114,Wunderground v.1.15,2013-07-19 18:40:00,
2013-07-19 13:50:00,88.3,72.7,29.90,SSE,165,0.0,0.0,60,0.00,,,0.00,1030,Wunderground v.1.15,2013-07-19 18:50:00,
2013-07-19 13:55:00,90.1,74.8,29.90,South,170,1.0,2.0,61,0.00,,,0.00,1034,Wunderground v.1.15,2013-07-19 18:55:00,
2013-07-19 14:00:00,90.6,73.3,29.89,SSE,155,2.0,2.0,57,0.00,,,0.00,1023,Wunderground v.1.15,2013-07-19 19:00:00,
2013-07-19 14:05:00,90.6,75.3,29.89,SSE,160,1.0,2.0,61,0.00,,,0.00,1023,Wunderground v.1.15,2013-07-19 19:05:00,
2013-07-19 14:10:00,90.6,73.3,29.89,SSE,152,1.0,1.0,57,0.00,,,0.00,1021,Wunderground v.1.15,2013-07-19 19:10:00,
2013-07-19 14:15:00,90.5,72.1,29.88,SSE,150,0.0,1.0,55,0.00,,,0.00,1000,Wunderground v.1.15,2013-07-19 19:15:00,
2013-07-19 14:20:00,90.7,73.9,29.88,SSE,150,0.0,0.0,58,0.00,,,0.00,1007,Wunderground v.1.15,2013-07-19 19:20:00,
2013-07-19 14:25:00,91.5,74.1,29.88,SSE,150,0.0,0.0,57,0.00,,,0.00,1055,Wunderground v.1.15,2013-07-19 19:25:00,
2013-07-19 14:30:00,91.0,73.1,29.88,ESE,108,0.0,0.0,56,0.00,,,0.00,197,Wunderground v.1.15,2013-07-19 19:30:00,
2013-07-19 14:35:00,90.4,72.6,29.88,ESE,107,0.0,0.0,56,0.00,,,0.00,1060,Wunderground v.1.15,2013-07-19 19:35:00,
2013-07-19 14:40:00,90.8,72.4,29.88,SE,130,0.0,7.0,55,0.00,,,0.00,327,Wunderground v.1.15,2013-07-19 19:40:00,
2013-07-19 14:45:00,91.1,73.7,29.87,SE,132,1.0,7.0,57,0.00,,,0.00,972,Wunderground v.1.15,2013-07-19 19:45:00,
2013-07-19 14:50:00,92.0,73.0,29.87,SE,132,2.0,2.0,54,0.00,,,0.00,995,Wunderground v.1.15,2013-07-19 19:50:00,
2013-07-19 14:55:00,92.5,75.0,29.87,SE,132,1.0,2.0,57,0.00,,,0.00,965,Wunderground v.1.15,2013-07-19 19:55:00,
2013-07-19 15:05:00,92.0,71.9,29.86,SE,132,0.0,1.0,52,0.00,,,0.00,847,Wunderground v.1.15,2013-07-19 20:05:00,
2013-07-19 15:10:00,91.9,71.8,29.86,SE,132,0.0,0.0,52,0.00,,,0.00,893,Wunderground v.1.15,2013-07-19 20:10:00,
2013-07-19 15:15:00,92.0,72.4,29.86,SE,132,1.0,2.0,53,0.00,,,0.00,888,Wunderground v.1.15,2013-07-19 20:15:00,
2013-07-19 15:20:00,91.9,73.4,29.86,SE,132,1.0,1.0,55,0.00,,,0.00,895,Wunderground v.1.15,2013-07-19 20:20:00,
2013-07-19 15:25:00,91.8,71.7,29.86,SSE,147,0.0,3.0,52,0.00,,,0.00,930,Wunderground v.1.15,2013-07-19 20:25:00,
2013-07-19 15:30:00,91.1,72.1,29.85,SE,146,1.0,1.0,54,0.00,,,0.00,149,Wunderground v.1.15,2013-07-19 20:30:00,
2013-07-19 15:35:00,90.8,72.4,29.85,SE,146,1.0,1.0,55,0.00,,,0.00,875,Wunderground v.1.15,2013-07-19 20:35:00,
2013-07-19 15:45:00,92.3,73.2,29.85,SE,146,1.0,4.0,54,0.00,,,0.00,895,Wunderground v.1.15,2013-07-19 20:45:00,
2013-07-19 15:50:00,93.1,73.4,29.85,SE,146,1.0,1.0,53,0.00,,,0.00,895,Wunderground v.1.15,2013-07-19 20:50:00,
2013-07-19 15:55:00,93.2,71.2,29.85,SE,146,0.0,1.0,49,0.00,,,0.00,877,Wunderground v.1.15,2013-07-19 20:55:00,
2013-07-19 16:00:00,93.1,73.4,29.84,SE,140,0.0,0.0,53,0.00,,,0.00,893,Wunderground v.1.15,2013-07-19 21:00:00,
2013-07-19 16:05:00,92.3,72.7,29.84,SE,140,0.0,0.0,53,0.00,,,0.00,229,Wunderground v.1.15,2013-07-19 21:05:00,
2013-07-19 16:10:00,92.1,71.9,29.84,SE,140,0.0,0.0,52,0.00,,,0.00,178,Wunderground v.1.15,2013-07-19 21:10:00,
2013-07-19 16:15:00,91.7,72.7,29.84,SE,140,0.0,0.0,54,0.00,,,0.00,784,Wunderground v.1.15,2013-07-19 21:15:00,
2013-07-19 16:25:00,92.7,71.9,29.84,East,94,1.0,1.0,51,0.00,,,0.00,821,Wunderground v.1.15,2013-07-19 21:25:00,
2013-07-19 16:30:00,91.8,71.7,29.83,East,94,1.0,1.0,52,0.00,,,0.00,149,Wunderground v.1.15,2013-07-19 21:30:00,
2013-07-19 16:35:00,91.3,72.3,29.83,East,94,0.0,1.0,54,0.00,,,0.00,721,Wunderground v.1.15,2013-07-19 21:35:00,
2013-07-19 16:40:00,92.2,72.6,29.83,East,94,0.0,0.0,53,0.00,,,0.00,733,Wunderground v.1.15,2013-07-19 21:40:00,
2013-07-19 16:45:00,92.6,74.1,29.82,East,94,0.0,0.0,55,0.00,,,0.00,733,Wunderground v.1.15,2013-07-19 21:45:00,
2013-07-19 16:50:00,92.7,72.5,29.82,East,94,0.0,0.0,52,0.00,,,0.00,731,Wunderground v.1.15,2013-07-19 21:50:00,
2013-07-19 16:55:00,92.9,71.5,29.82,East,94,0.0,0.0,50,0.00,,,0.00,707,Wunderground v.1.15,2013-07-19 21:55:00,
2013-07-19 17:00:00,93.1,73.4,29.82,East,94,0.0,0.0,53,0.00,,,0.00,679,Wunderground v.1.15,2013-07-19 22:00:00,
2013-07-19 17:05:00,93.1,72.3,29.82,East,94,0.0,0.0,51,0.00,,,0.00,666,Wunderground v.1.15,2013-07-19 22:05:00,
2013-07-19 17:15:00,93.2,72.4,29.81,East,94,0.0,0.0,51,0.00,,,0.00,703,Wunderground v.1.15,2013-07-19 22:15:00,
2013-07-19 17:25:00,93.3,73.0,29.81,East,94,0.0,0.0,52,0.00,,,0.00,708,Wunderground v.1.15,2013-07-19 22:25:00,
2013-07-19 17:30:00,92.4,72.2,29.80,East,94,0.0,0.0,52,0.00,,,0.00,185,Wunderground v.1.15,2013-07-19 22:30:00,
2013-07-19 17:35:00,91.3,72.3,29.80,East,94,0.0,0.0,54,0.00,,,0.00,139,Wunderground v.1.15,2013-07-19 22:35:00,
2013-07-19 17:40:00,90.4,72.0,29.80,East,94,0.0,5.0,55,0.00,,,0.00,102,Wunderground v.1.15,2013-07-19 22:40:00,
2013-07-19 17:45:00,89.9,71.0,29.80,East,94,0.0,5.0,54,0.00,,,0.00,102,Wunderground v.1.15,2013-07-19 22:45:00,
2013-07-19 17:50:00,90.0,71.7,29.80,East,94,0.0,0.0,55,0.00,,,0.00,97,Wunderground v.1.15,2013-07-19 22:50:00,
2013-07-19 17:55:00,89.8,72.0,29.80,East,94,0.0,0.0,56,0.00,,,0.00,111,Wunderground v.1.15,2013-07-19 22:55:00,
2013-07-19 18:00:00,89.5,70.7,29.80,East,94,0.0,0.0,54,0.00,,,0.00,137,Wunderground v.1.15,2013-07-19 23:00:00,
2013-07-19 18:05:00,89.9,72.1,29.80,East,94,0.0,0.0,56,0.00,,,0.00,155,Wunderground v.1.15,2013-07-19 23:05:00,
2013-07-19 18:15:00,90.8,71.3,29.79,East,94,0.0,0.0,53,0.00,,,0.00,341,Wunderground v.1.15,2013-07-19 23:15:00,
2013-07-19 18:20:00,91.0,72.6,29.79,East,95,0.0,1.0,55,0.00,,,0.00,163,Wunderground v.1.15,2013-07-19 23:20:00,
2013-07-19 18:25:00,90.7,72.8,29.79,ESE,105,1.0,1.0,56,0.00,,,0.00,111,Wunderground v.1.15,2013-07-19 23:25:00,
2013-07-19 18:30:00,90.4,70.9,29.79,ESE,123,2.0,3.0,53,0.00,,,0.00,91,Wunderground v.1.15,2013-07-19 23:30:00,
2013-07-19 18:35:00,90.1,71.2,29.79,ESE,123,3.0,3.0,54,0.00,,,0.00,77,Wunderground v.1.15,2013-07-19 23:35:00,
2013-07-19 18:40:00,89.8,72.0,29.79,ESE,123,1.0,1.0,56,0.00,,,0.00,69,Wunderground v.1.15,2013-07-19 23:40:00,
2013-07-19 18:50:00,89.4,72.2,29.79,SE,124,0.0,0.0,57,0.00,,,0.00,83,Wunderground v.1.15,2013-07-19 23:50:00,
2013-07-19 19:00:00,88.8,72.6,29.79,SE,128,1.0,4.0,59,0.00,,,0.00,83,Wunderground v.1.15,2013-07-20 00:00:00,
2013-07-19 19:05:00,88.6,72.4,29.79,SE,128,1.0,4.0,59,0.00,,,0.00,88,Wunderground v.1.15,2013-07-20 00:05:00,
2013-07-19 19:10:00,88.5,72.8,29.79,SE,128,1.0,1.0,60,0.00,,,0.00,98,Wunderground v.1.15,2013-07-20 00:10:00,
2013-07-19 19:15:00,88.4,73.7,29.79,SE,128,0.0,1.0,62,0.00,,,0.00,114,Wunderground v.1.15,2013-07-20 00:15:00,
2013-07-19 19:20:00,88.2,73.0,29.79,SE,126,0.0,0.0,61,0.00,,,0.00,102,Wunderground v.1.15,2013-07-20 00:20:00,
2013-07-19 19:25:00,88.3,73.1,29.79,SE,128,0.0,0.0,61,0.00,,,0.00,116,Wunderground v.1.15,2013-07-20 00:25:00,
2013-07-19 19:30:00,88.6,72.4,29.79,SE,128,0.0,0.0,59,0.00,,,0.00,146,Wunderground v.1.15,2013-07-20 00:30:00,
2013-07-19 19:35:00,88.8,72.1,29.79,SE,128,0.0,0.0,58,0.00,,,0.00,98,Wunderground v.1.15,2013-07-20 00:35:00,
2013-07-19 19:40:00,88.5,72.3,29.79,SE,128,0.0,0.0,59,0.00,,,0.00,97,Wunderground v.1.15,2013-07-20 00:40:00,
2013-07-19 19:45:00,88.3,74.1,29.79,SE,126,0.0,0.0,63,0.00,,,0.00,95,Wunderground v.1.15,2013-07-20 00:45:00,
2013-07-19 19:50:00,88.2,73.0,29.79,SE,127,0.0,0.0,61,0.00,,,0.00,90,Wunderground v.1.15,2013-07-20 00:50:00,
2013-07-19 19:55:00,88.3,73.1,29.79,SE,128,0.0,0.0,61,0.00,,,0.00,84,Wunderground v.1.15,2013-07-20 00:55:00,
2013-07-19 20:00:00,88.1,73.4,29.80,SE,128,0.0,0.0,62,0.00,,,0.00,72,Wunderground v.1.15,2013-07-20 01:00:00,
2013-07-19 20:05:00,87.6,72.5,29.80,ESE,110,0.0,0.0,61,0.00,,,0.00,32,Wunderground v.1.15,2013-07-20 01:05:00,
2013-07-19 20:10:00,86.7,74.0,29.80,ENE,74,2.0,6.0,66,0.00,,,0.00,35,Wunderground v.1.15,2013-07-20 01:10:00,
2013-07-19 20:15:00,84.5,73.6,29.81,ESE,115,5.0,7.0,70,0.00,,,0.01,14,Wunderground v.1.15,2013-07-20 01:15:00,
2013-07-19 20:20:00,83.1,73.1,29.81,SW,218,7.0,9.0,72,0.46,,,0.07,7,Wunderground v.1.15,2013-07-20 01:20:00,
2013-07-19 20:25:00,82.1,73.4,29.81,SW,230,5.0,9.0,75,0.26,,,0.09,0,Wunderground v.1.15,2013-07-20 01:25:00,
2013-07-19 20:30:00,81.4,73.5,29.80,WNW,286,2.0,2.0,77,0.09,,,0.09,0,Wunderground v.1.15,2013-07-20 01:30:00,
2013-07-19 20:35:00,80.6,73.5,29.80,SSE,157,1.0,2.0,79,0.05,,,0.09,0,Wunderground v.1.15,2013-07-20 01:35:00,
2013-07-19 20:40:00,79.9,73.2,29.80,SSE,161,1.0,3.0,80,0.04,,,0.09,0,Wunderground v.1.15,2013-07-20 01:40:00,
2013-07-19 20:45:00,79.6,73.6,29.81,SSE,160,1.0,3.0,82,0.00,,,0.09,0,Wunderground v.1.15,2013-07-20 01:45:00,
2013-07-19 20:55:00,79.3,74.4,29.81,SSE,165,1.0,3.0,85,0.00,,,0.09,0,Wunderground v.1.15,2013-07-20 01:55:00,
2013-07-19 21:00:00,79.3,74.4,29.82,SSE,160,3.0,3.0,85,0.00,,,0.09,0,Wunderground v.1.15,2013-07-20 02:00:00,
2013-07-19 21:10:00,79.4,74.5,29.82,SE,142,4.0,4.0,85,0.00,,,0.09,0,Wunderground v.1.15,2013-07-20 02:10:00,
2013-07-19 21:15:00,79.6,74.3,29.82,SE,143,5.0,5.0,84,0.00,,,0.09,0,Wunderground v.1.15,2013-07-20 02:15:00,
2013-07-19 21:20:00,80.0,74.4,29.82,SE,135,6.0,6.0,83,0.00,,,0.09,0,Wunderground v.1.15,2013-07-20 02:20:00,
2013-07-19 21:25:00,80.4,74.4,29.82,SSE,148,5.0,6.0,82,0.00,,,0.09,0,Wunderground v.1.15,2013-07-20 02:25:00,
2013-07-19 21:30:00,80.7,74.3,29.83,SSE,154,3.0,4.0,81,0.00,,,0.09,0,Wunderground v.1.15,2013-07-20 02:30:00,
2013-07-19 21:35:00,80.9,74.1,29.83,South,169,3.0,9.0,80,0.00,,,0.09,0,Wunderground v.1.15,2013-07-20 02:35:00,
2013-07-19 21:40:00,80.9,73.8,29.83,SE,145,3.0,3.0,79,0.00,,,0.09,0,Wunderground v.1.15,2013-07-20 02:40:00,
2013-07-19 21:45:00,81.1,74.0,29.84,SE,144,4.0,4.0,79,0.00,,,0.09,0,Wunderground v.1.15,2013-07-20 02:45:00,
2013-07-19 21:50:00,81.1,74.0,29.84,SE,144,4.0,4.0,79,0.00,,,0.09,0,Wunderground v.1.15,2013-07-20 02:50:00,
2013-07-19 21:55:00,81.2,73.3,29.84,SSE,147,6.0,13.0,77,0.00,,,0.09,0,Wunderground v.1.15,2013-07-20 02:55:00,
2013-07-19 22:00:00,81.4,73.5,29.85,SSE,150,7.0,8.0,77,0.00,,,0.09,0,Wunderground v.1.15,2013-07-20 03:00:00,
2013-07-19 22:05:00,81.4,73.1,29.85,SSE,156,6.0,8.0,76,0.00,,,0.09,0,Wunderground v.1.15,2013-07-20 03:05:00,
2013-07-19 22:10:00,81.4,73.1,29.85,SE,142,5.0,11.0,76,0.00,,,0.09,0,Wunderground v.1.15,2013-07-20 03:10:00,
2013-07-19 22:15:00,81.4,72.7,29.85,SE,143,4.0,11.0,75,0.00,,,0.09,0,Wunderground v.1.15,2013-07-20 03:15:00,
2013-07-19 22:20:00,81.4,72.7,29.85,SE,146,5.0,6.0,75,0.00,,,0.09,0,Wunderground v.1.15,2013-07-20 03:20:00,
2013-07-19 22:25:00,81.3,72.6,29.85,SSE,148,6.0,6.0,75,0.00,,,0.09,0,Wunderground v.1.15,2013-07-20 03:25:00,
2013-07-19 22:35:00,81.2,72.9,29.86,SE,146,4.0,6.0,76,0.00,,,0.09,0,Wunderground v.1.15,2013-07-20 03:35:00,
2013-07-19 22:40:00,81.1,72.8,29.86,SE,146,4.0,4.0,76,0.00,,,0.09,0,Wunderground v.1.15,2013-07-20 03:40:00,
2013-07-19 22:45:00,81.0,72.7,29.87,SSE,155,4.0,4.0,76,0.00,,,0.09,0,Wunderground v.1.15,2013-07-20 03:45:00,
2013-07-19 22:50:00,80.9,72.6,29.87,SSE,158,5.0,7.0,76,0.00,,,0.09,0,Wunderground v.1.15,2013-07-20 03:50:00,
2013-07-19 22:55:00,80.8,72.1,29.87,SSE,150,6.0,7.0,75,0.00,,,0.09,0,Wunderground v.1.15,2013-07-20 03:55:00,
2013-07-19 23:05:00,80.7,72.0,29.87,SSE,152,5.0,6.0,75,0.00,,,0.09,0,Wunderground v.1.15,2013-07-20 04:05:00,
2013-07-19 23:10:00,80.6,72.3,29.87,SE,143,5.0,5.0,76,0.00,,,0.09,0,Wunderground v.1.15,2013-07-20 04:10:00,
2013-07-19 23:15:00,80.6,72.3,29.88,SSE,160,5.0,5.0,76,0.00,,,0.09,0,Wunderground v.1.15,2013-07-20 04:15:00,
2013-07-19 23:20:00,80.5,72.2,29.88,SE,139,4.0,6.0,76,0.00,,,0.09,0,Wunderground v.1.15,2013-07-20 04:20:00,
2013-07-19 23:30:00,80.4,72.5,29.89,SE,128,5.0,5.0,77,0.00,,,0.09,0,Wunderground v.1.15,2013-07-20 04:30:00,
2013-07-19 23:35:00,80.3,72.4,29.89,SSE,155,5.0,5.0,77,0.00,,,0.09,0,Wunderground v.1.15,2013-07-20 04:35:00,
2013-07-19 23:40:00,80.3,72.4,29.89,SE,134,5.0,6.0,77,0.00,,,0.09,0,Wunderground v.1.15,2013-07-20 04:40:00,
2013-07-19 23:45:00,80.2,72.7,29.89,SE,135,4.0,6.0,78,0.00,,,0.09,0,Wunderground v.1.15,2013-07-20 04:45:00,
2013-07-19 23:50:00,80.1,72.6,29.89,SE,128,3.0,3.0,78,0.00,,,0.09,0,Wunderground v.1.15,2013-07-20 04:50:00,
2013-07-19 23:55:00,80.0,72.9,29.89,SE,137,3.0,4.0,79,0.00,,,0.09,0,Wunderground v.1.15,2013-07-20 04:55:00,